Flag for U.S.A. Weather past 2 weeks in Galveston, Texas, U.S.A.

Now
84 °F

Passing clouds.


Feels Like: 88 °F
Forecast: 74 / 85 °F
Wind: 8 mph from Southeast

Location: Scholes Field

Current Time: Jun 2, 2015 at 2:52:13 PM

Latest Report: Jun 2, 2015 at 1:52 PM


Visibility: 10 mi

Pressure: 30.01 "Hg

Humidity: 63%

Dew point: 70 °F

Location of GalvestonLocation

Historic Weather in Galveston — Graph

°F

Galveston temperature yesterday

Maximum temperature yesterday: 87 °F (at 3:52 PM)
Minimum temperature yesterday: 75 °F (at 4:52 AM)
Average temperature yesterday: 81 °F

Past Weeks' High & Low Weather Summary

 TemperatureHumidityPressure
High87 °F (Jun 1, 3:52 PM)100% (May 27, 7:54 AM)30.16 "Hg (May 27, 7:54 AM)
Low69 °F (May 22, 6:52 AM)51% (Jun 1, 2:52 PM)29.84 "Hg (May 25, 5:52 PM)
Average79 °F83%30.03 "Hg
* Reported May 18 12:52 PM — Jun 2 12:52 PM, Galveston, Weather by CustomWeather, © 2015

Note: Actual official high and low records may vary slightly from our data, if they occured in-between our weather recording intervals... More about our weather records

Advertising

Galveston weather history for previous 24 hours

 ConditionsComfort  
Time TempWeatherWind HumidityBarometerVisibility
12:52 PM
Tue, Jun 2
85 °FScattered clouds.5 mph63%30.02 "Hg10 mi
11:52 AM85 °FScattered clouds.3 mph59%30.03 "Hg10 mi
10:52 AM84 °FPassing clouds.5 mph61%30.04 "Hg10 mi
9:52 AM83 °FSunny.No wind65%30.04 "Hg10 mi
8:52 AM82 °FSunny.6 mph67%30.05 "Hg10 mi
7:52 AM80 °FSunny.7 mph71%30.03 "Hg10 mi
6:52 AM77 °FClear.6 mph74%30.03 "Hg10 mi
5:52 AM76 °FPassing clouds.7 mph74%30.01 "Hg10 mi
4:52 AM77 °FClear.5 mph74%30.01 "Hg10 mi
3:52 AM78 °FPassing clouds.5 mph74%30.01 "Hg10 mi
2:52 AM77 °FClear.6 mph77%30.01 "Hg10 mi
1:52 AM77 °FPassing clouds.6 mph82%30.02 "Hg10 mi
12:52 AM79 °FClear.No wind69%30.02 "Hg10 mi
11:52 PM
Mon, Jun 1
78 °FClear.3 mph74%30.03 "Hg10 mi
9:52 PM80 °FPassing clouds.No wind67%30.02 "Hg10 mi
8:52 PM80 °FSunny.5 mph67%30.01 "Hg10 mi
7:52 PM81 °FSunny.8 mph65%30.01 "Hg10 mi
6:52 PM83 °FPassing clouds.7 mph59%30.00 "Hg10 mi
5:52 PM86 °FSunny.5 mph51%30.01 "Hg10 mi
4:52 PM86 °FSunny.7 mph51%30.02 "Hg10 mi
3:52 PM87 °FSunny.10 mph51%30.03 "Hg10 mi
2:52 PM85 °FSunny.8 mph51%30.06 "Hg10 mi
Weather by CustomWeather, © 2015

See weather overviewHow to use our weather pages